Location: Unspecified
(0.0000°N, 0.0000°E)
Time: 01:32:02
(UTC+00:00)

Vanguard 2 - Pass Details

Date: 10 December 2017
Orbit: 553 x 2939 km, 32.9° (Epoch: 22 January)

Event Time Altitude Azimuth Distance (km) Brightness Sun altitude
Rises 07:07:33 0° 226° (SW) 6,441 12.0 17.2°
Reaches altitude 10° 07:14:35 10° 208° (SSW) 5,679 12.0 18.8°
Maximum altitude 07:24:30 17° 173° (S) 5,185 12.3 21.0°
Drops below altitude 10° 07:34:10 10° 138° (SE) 5,539 13.3 23.2°
Sets 07:40:48 0° 120° (ESE) 6,224 13.6 24.7°
